User: anonymous   Login
Location: Brede
(50.9167°N, 0.6000°E)
Time: 19:47:34
(UTC+00:00)
Language:

Cosmos 2360 Rocket - Orbit

View from above orbital plane
View from above orbital plane
View from above satellite
View from above satellite

Ground track
Ground track

The orbit data is extracted from the following two-line orbital elements,

1 25407U 98045B   20304.49620807  .00000021  00000-0  34703-4 0  9993
2 25407  71.0113 333.7983 0005881 141.9990 218.1549 14.15827768150469
Epoch (UTC): 30 October 2020 11:54:32
Eccentricity: 0.0005881
inclination: 71.0113°
perigee height: 835 km
apogee height: 844 km
right ascension of ascending node: 333.7983°
argument of perigee: 141.9990°
revolutions per day: 14.15827768
mean anomaly at epoch: 218.1549°
orbit number at epoch: 15046

The dashed part of the orbit path shows where the satellite is in the earth's shadow,  

DLR